Location: Asheville, NC
(35.6000°N, 82.5500°W)
Time: 11:42:58
(UTC-04:00)

Vanguard 3 - Pass Details

Date: 15 March 2018
Orbit: 508 x 3264 km, 33.3° (Epoch: 21 June)

Event Time Altitude Azimuth Distance (km) Brightness Sun altitude
Rises 16:20:27 0° 281° (W) 5,613 11.9 36.9°
Reaches altitude 10° 16:26:07 10° 266° (W) 4,008 11.7 35.9°
Maximum altitude 16:32:12 18° 228° (SW) 2,731 11.6 34.9°
Drops below altitude 10° 16:36:40 10° 187° (S) 2,777 10.5 34.1°
Sets 16:39:40 0° 167° (SSE) 3,378 10.5 33.6°
